Waarnemingen

Advertentie
Mijn weer
Tiree, Groot Brittannië (3100): temperatuur & dauwpunt: 17.05.2018 00:00:00 - 23.05.2018 00:00:00 (BST)Tiree, Groot Brittannië (3100): temperatuur -20cm & temperatuur -100cm: 17.05.2018 00:00:00 - 23.05.2018 00:00:00 (BST)Tiree, Groot Brittannië (3100): windsnelheid & windstoten: 17.05.2018 00:00:00 - 23.05.2018 00:00:00 (BST)Tiree, Groot Brittannië (3100): windrichting: 17.05.2018 00:00:00 - 23.05.2018 00:00:00 (BST)Tiree, Groot Brittannië (3100): luchtdruk: 17.05.2018 00:00:00 - 23.05.2018 00:00:00 (BST)Tiree, Groot Brittannië (3100): zicht: 17.05.2018 00:00:00 - 23.05.2018 00:00:00 (BST)Tiree, Groot Brittannië (3100): Zonneschijnduur: 17.05.2018 00:00:00 - 23.05.2018 00:00:00 (BST)Tiree, Groot Brittannië (3100): neerslag: 17.05.2018 00:00:00 - 23.05.2018 00:00:00 (BST)
Datum & Tijd tt [°C] td [°C] tt -20cm [°C] tt -100cm [°C] ff [km/u] ff [kn] fx [km/u] fx [kn] dd ppp [hPa] vv [km] sd [min] rr [mm]
23.05.2018 00:00:00 9,4 7,9 - - 11 6 - - N 1025,2 50 0 0,0
22.05.2018 23:00:00 10,2 8,2 - - 13 7 - - N 1025,1 50 0 0,0
22.05.2018 22:00:00 10,4 8,5 - - 11 6 - - N 1024,9 10 0 0,0
22.05.2018 21:00:00 10,5 8,3 - - 9 5 - - N 1024,6 50 0 0,0
22.05.2018 20:00:00 12,0 8,5 - - 9 5 - - N 1024,4 45 54 0,0
22.05.2018 19:00:00 13,4 7,9 - - 13 7 - - NNO 1024,3 30 48 0,0
22.05.2018 18:00:00 13,7 7,9 - - 13 7 - - NNO 1024,2 10 54 0,0
22.05.2018 17:00:00 14,3 7,9 - - 11 6 - - ONO 1024,4 10 54 0,0
22.05.2018 16:00:00 13,4 7,5 - - 11 6 - - NNO 1024,7 10 36 0,0
22.05.2018 15:00:00 13,3 7,8 - - 5 3 - - ZZO 1025,0 10 0 0,0
22.05.2018 14:00:00 12,7 7,2 - - 9 5 - - ZO 1024,9 45 6 0,0
22.05.2018 13:00:00 11,7 6,3 - - 9 5 - - OZO 1024,8 45 0 0,0
22.05.2018 12:00:00 11,9 7,1 - - 18 10 - - ONO 1024,4 10 0 0,0
22.05.2018 11:00:00 12,1 7,3 - - 16 9 - - ONO 1024,5 10 30 0,0
22.05.2018 10:00:00 10,3 6,8 11,7 10,5 26 14 - - NO 1024,4 10 24 0,0
22.05.2018 09:00:00 9,3 6,2 - - 26 14 - - NNO 1024,8 40 36 0,0
22.05.2018 08:00:00 9,0 5,7 - - 28 15 - - NNO 1024,2 45 60 0,0
22.05.2018 07:00:00 8,1 5,6 - - 26 14 - - NNO 1024,4 30 54 0,0
22.05.2018 06:00:00 7,4 5,3 - - 29 16 46 25 NNO 1024,0 27 12 0,0
22.05.2018 05:00:00 7,1 5,1 - - 29 16 - - NNO 1024,1 35 0 0,0
22.05.2018 04:00:00 7,0 5,4 - - 34 18 46 25 NNO 1024,4 22 0 0,0
22.05.2018 03:00:00 7,1 5,1 - - 35 19 48 26 N 1024,4 28 0 0,0
22.05.2018 02:00:00 7,5 4,6 - - 35 19 48 26 N 1024,4 35 0 0,0
22.05.2018 01:00:00 7,5 5,2 - - 34 18 - - N 1024,5 30 - 0,0
22.05.2018 00:00:00 7,6 5,4 - - 31 17 - - N 1024,4 30 0 0,0
21.05.2018 23:00:00 7,5 5,3 - - 29 16 - - N 1024,5 30 0 0,0
21.05.2018 22:00:00 7,6 5,2 - - 28 15 - - N 1024,2 40 24 0,0
21.05.2018 21:00:00 8,1 5,5 - - 26 14 - - N 1023,8 45 60 0,0
21.05.2018 20:00:00 9,0 6,0 - - 26 14 - - N 1023,7 10 36 0,0
21.05.2018 19:00:00 9,1 6,7 - - 24 13 - - N 1023,4 40 30 0,0
21.05.2018 18:00:00 9,5 6,4 - - 29 16 - - N 1022,9 10 12 0,0
21.05.2018 17:00:00 9,3 6,9 - - 29 16 - - N 1022,5 10 0 0,0
21.05.2018 16:00:00 8,8 7,1 - - 28 15 - - N 1022,1 10 0 0,0
21.05.2018 15:00:00 8,2 6,9 - - 28 15 - - N 1021,8 10 0 0,8
21.05.2018 14:00:00 7,8 6,5 - - 26 14 - - N 1021,3 10 0 0,6
21.05.2018 13:00:00 7,9 6,6 - - 31 17 - - N 1020,5 19 0 0,6
21.05.2018 12:00:00 7,7 6,5 - - 35 19 - - N 1020,0 12 0 1,6
21.05.2018 11:00:00 7,8 6,9 - - 34 18 50 27 N 1019,6 7 0 2,0
21.05.2018 10:00:00 7,9 7,3 12,0 10,4 42 23 54 29 NNW 1018,9 5 0 2,4
21.05.2018 09:00:00 8,6 8,4 - - 35 19 46 25 NNW 1018,5 7 0 2,2
21.05.2018 08:00:00 8,8 8,8 - - 34 18 - - NNW 1018,0 7 0 3,6
21.05.2018 07:00:00 8,9 8,9 - - 31 17 - - N 1016,8 6 0 2,2
21.05.2018 06:00:00 8,9 8,9 - - 31 17 - - NNW 1016,4 5 0 2,4
21.05.2018 05:00:00 9,1 9,1 - - 21 11 - - NNW 1016,2 3,3 0 1,4
21.05.2018 04:00:00 9,1 9,1 - - 18 10 - - N 1015,9 7 0 1,2
21.05.2018 03:00:00 9,0 9,0 - - 24 13 - - N 1015,9 7 0 1,0
21.05.2018 02:00:00 9,2 9,2 - - 24 13 - - N 1015,9 9 0 0,4
21.05.2018 01:00:00 9,6 9,6 - - 18 10 - - N 1016,1 4,5 - 0,4
21.05.2018 00:00:00 10,0 9,9 - - 2 1 - - ZZO 1015,9 1,5 0 0,8
20.05.2018 23:00:00 10,1 10,0 - - 8 4 - - ZZO 1015,9 1,2 0 0,4
20.05.2018 22:00:00 10,3 10,2 - - 15 8 - - Z 1015,8 2,4 0 0,8
20.05.2018 21:00:00 10,3 10,2 - - 18 10 - - Z 1015,4 2,5 0 0,2
20.05.2018 20:00:00 10,4 10,3 - - 15 8 - - Z 1015,1 1,2 0 0,4
20.05.2018 19:00:00 10,4 10,3 - - 18 10 - - Z 1014,7 1,8 0 0,6
20.05.2018 18:00:00 10,5 10,3 - - 18 10 - - Z 1014,7 2,8 0 0,8
20.05.2018 17:00:00 10,5 10,3 - - 22 12 - - Z 1014,6 2,3 0 0,6
20.05.2018 16:00:00 10,8 10,3 - - 22 12 - - Z 1014,8 3,0 0 0,2
20.05.2018 15:00:00 11,0 10,2 - - 26 14 - - Z 1014,5 6 0 0,0
20.05.2018 14:00:00 11,1 10,1 - - 29 16 46 25 ZZO 1014,4 7 0 0,0
20.05.2018 13:00:00 11,5 10,4 - - 35 19 46 25 ZZO 1013,9 9 0 0,0
20.05.2018 12:00:00 11,2 10,3 - - 35 19 48 26 Z 1013,7 8 0 0,0
20.05.2018 11:00:00 11,2 10,3 - - 35 19 48 26 ZZO 1013,5 8 0 0,0
20.05.2018 10:00:00 10,9 10,2 12,0 10,2 39 21 54 29 ZZO 1013,6 9 0 0,0
20.05.2018 09:00:00 10,5 9,9 - - 42 23 57 31 ZZO 1013,5 7 0 0,0
20.05.2018 08:00:00 10,3 9,7 - - 41 22 52 28 Z 1013,2 6 0 0,2
20.05.2018 07:00:00 10,2 9,4 - - 41 22 52 28 Z 1013,1 8 0 0,0
20.05.2018 06:00:00 10,4 9,3 - - 39 21 50 27 Z 1012,9 7 0 0,0
20.05.2018 05:00:00 10,6 9,1 - - 37 20 52 28 Z 1012,7 10 0 0,0
20.05.2018 04:00:00 10,7 9,3 - - 35 19 48 26 Z 1012,9 10 0 0,0
20.05.2018 03:00:00 11,1 9,4 - - 37 20 46 25 Z 1013,2 9 0 0,0
20.05.2018 02:00:00 11,2 9,8 - - 31 17 - - Z 1013,2 11 0 0,0
20.05.2018 01:00:00 10,5 9,8 - - 26 14 - - Z 1013,5 8 - 0,4
20.05.2018 00:00:00 10,6 9,8 - - 24 13 - - Z 1013,6 6 0 1,0
19.05.2018 23:00:00 11,2 9,8 - - 24 13 - - ZZW 1013,9 7 0 0,4
19.05.2018 22:00:00 11,2 9,1 - - 21 11 - - Z 1013,6 10 0 0,0
19.05.2018 21:00:00 11,0 9,0 - - 18 10 - - ZZO 1014,0 9 0 0,0
19.05.2018 20:00:00 11,4 9,0 - - 21 11 - - Z 1014,4 9 0 0,0
19.05.2018 19:00:00 12,2 9,4 - - 26 14 - - Z 1015,0 10 0 0,0
19.05.2018 18:00:00 12,3 9,3 - - 26 14 - - Z 1015,3 10 6 0,0
19.05.2018 17:00:00 12,9 9,6 - - 24 13 - - Z 1016,0 10 0 0,0
19.05.2018 16:00:00 13,1 9,1 - - 28 15 - - Z 1016,5 16 42 0,0
19.05.2018 15:00:00 13,4 10,2 - - 24 13 - - Z 1016,8 14 60 0,0
19.05.2018 14:00:00 13,3 10,0 - - 24 13 - - ZZO 1017,2 10 42 0,0
19.05.2018 13:00:00 12,7 9,6 - - 22 12 - - Z 1017,8 13 60 0,0
19.05.2018 12:00:00 12,7 9,0 - - 29 16 - - ZZO 1018,2 10 24 0,0
19.05.2018 11:00:00 11,8 8,1 - - 24 13 - - ZZO 1018,8 10 42 0,0
19.05.2018 10:00:00 11,7 9,0 11,9 10,2 26 14 - - ZZO 1019,4 10 48 0,0
19.05.2018 09:00:00 11,3 8,8 - - 28 15 - - ZZO 1019,8 10 42 0,0
19.05.2018 08:00:00 10,7 7,7 - - 26 14 - - Z 1019,9 15 24 0,0
19.05.2018 07:00:00 10,3 8,0 - - 24 13 - - Z 1019,7 14 0 0,0
19.05.2018 06:00:00 10,0 8,3 - - 22 12 - - Z 1019,9 11 0 0,0
19.05.2018 05:00:00 10,0 8,4 - - 21 11 - - ZZO 1020,1 12 0 0,0
19.05.2018 04:00:00 10,1 8,6 - - 16 9 - - ZZO 1020,6 14 0 0,0
19.05.2018 03:00:00 9,9 8,5 - - 16 9 - - ZZO 1021,1 15 0 0,0
19.05.2018 02:00:00 9,9 8,8 - - 11 6 - - Z 1021,6 12 0 0,0
19.05.2018 01:00:00 10,0 8,7 - - 16 9 - - ZZO 1021,9 13 - 0,0
19.05.2018 00:00:00 10,1 8,9 - - 13 7 - - Z 1022,4 15 0 0,0
18.05.2018 23:00:00 10,0 9,0 - - 16 9 - - Z 1022,7 10 0 0,0
18.05.2018 22:00:00 10,4 9,1 - - 15 8 - - Z 1022,8 21 0 0,0
18.05.2018 21:00:00 10,7 9,2 - - 16 9 - - Z 1022,9 25 0 0,0
18.05.2018 20:00:00 11,0 9,0 - - 18 10 - - Z 1023,0 17 0 0,0
18.05.2018 19:00:00 11,8 9,4 - - 22 12 - - Z 1022,8 21 0 0,0
18.05.2018 18:00:00 11,9 9,4 - - 16 9 - - Z 1023,2 10 0 0,0
18.05.2018 17:00:00 12,3 9,5 - - 18 10 - - Z 1023,1 10 0 0,0
18.05.2018 16:00:00 11,4 9,1 - - 18 10 - - Z 1023,1 10 0 0,0
18.05.2018 15:00:00 13,1 9,3 - - 21 11 - - Z 1023,4 24 6 0,0
18.05.2018 14:00:00 11,5 9,0 - - 22 12 - - Z 1023,6 13 0 0,0
18.05.2018 13:00:00 11,4 9,4 - - 21 11 - - Z 1023,6 10 0 0,0
18.05.2018 12:00:00 10,6 9,0 - - 21 11 - - Z 1023,8 13 0 0,0
18.05.2018 11:00:00 10,4 8,9 - - 18 10 - - Z 1023,5 9 0 0,0
18.05.2018 10:00:00 9,8 8,0 11,7 10,0 22 12 - - ZZO 1023,5 10 0 0,2
18.05.2018 09:00:00 9,1 7,2 - - 24 13 - - Z 1023,8 9 0 0,4
18.05.2018 08:00:00 9,6 7,0 - - 24 13 - - ZZO 1023,3 17 0 0,0
18.05.2018 07:00:00 9,3 6,9 - - 22 12 - - ZZO 1023,3 18 0 0,0
18.05.2018 06:00:00 9,2 7,0 - - 24 13 - - ZZO 1023,1 18 0 0,0
18.05.2018 05:00:00 9,3 6,5 - - 26 14 - - ZZO 1023,2 25 0 0,0
18.05.2018 04:00:00 9,4 6,5 - - 24 13 - - ZZO 1023,6 21 0 0,0
18.05.2018 03:00:00 9,6 6,8 - - 22 12 - - ZZO 1023,9 10 0 0,0
18.05.2018 02:00:00 9,5 7,1 - - 21 11 - - Z 1024,3 20 0 0,0
18.05.2018 01:00:00 9,8 7,1 - - 22 12 - - ZZO 1024,5 19 - 0,0
18.05.2018 00:00:00 9,9 6,9 - - 26 14 - - ZZO 1025,0 20 0 0,0
17.05.2018 23:00:00 10,1 6,7 - - 22 12 - - ZZO 1025,4 27 0 0,0
17.05.2018 22:00:00 10,7 7,1 - - 18 10 - - ZZO 1025,8 40 0 0,0
17.05.2018 21:00:00 11,0 7,3 - - 16 9 - - ZO 1025,9 35 0 0,0
17.05.2018 20:00:00 11,7 6,6 - - 16 9 - - ZO 1026,1 40 30 0,0
17.05.2018 19:00:00 11,8 8,0 - - 16 9 - - ZO 1026,3 26 60 0,0
17.05.2018 18:00:00 11,9 7,1 - - 18 10 - - ZO 1026,7 10 60 0,0
17.05.2018 17:00:00 11,8 7,4 - - 15 8 - - ZZO 1027,5 10 60 0,0
17.05.2018 16:00:00 11,8 8,4 - - 16 9 - - ZZO 1027,8 10 60 0,0
17.05.2018 15:00:00 11,8 8,5 - - 16 9 - - ZZO 1028,3 30 60 0,0
17.05.2018 14:00:00 11,9 8,9 - - 21 11 - - Z 1028,8 24 60 0,0
17.05.2018 13:00:00 11,5 7,6 - - 26 14 - - Z 1029,2 35 60 0,0
17.05.2018 12:00:00 10,7 7,5 - - 22 12 - - ZZO 1029,5 27 60 0,0
17.05.2018 11:00:00 10,7 7,0 - - 22 12 - - ZZO 1029,8 18 60 0,0
17.05.2018 10:00:00 10,1 6,6 11,7 10,0 24 13 - - ZO 1029,9 21 60 0,0
17.05.2018 09:00:00 10,1 7,1 - - 18 10 - - ZO 1029,8 25 60 0,0
17.05.2018 08:00:00 8,9 6,9 - - 9 5 - - ZO 1030,0 10 54 0,0
17.05.2018 07:00:00 7,2 6,4 - - 9 5 - - NO 1029,9 16 0 0,0
17.05.2018 06:00:00 4,8 3,7 - - 11 6 - - ONO 1030,0 15 0 0,0
17.05.2018 05:00:00 5,2 4,0 - - 13 7 - - NNO 1030,1 17 0 0,0
17.05.2018 04:00:00 5,3 4,3 - - 13 7 - - N 1030,5 17 0 0,0
17.05.2018 03:00:00 5,0 3,5 - - 11 6 - - NNO 1030,9 16 0 0,0
17.05.2018 02:00:00 7,2 5,1 - - 16 9 - - NNO 1031,4 17 0 0,0
17.05.2018 01:00:00 7,4 4,6 - - 21 11 - - NNO 1031,8 18 - 0,0
17.05.2018 00:00:00 7,9 5,0 - - 22 12 - - N 1032,2 19 0 0,0

tt = temperatuur
td = dauwpunt
tt -20cm = temperatuur -20cm
tt -100cm = temperatuur -100cm
ff = windsnelheid
fx = windstoten
dd = windrichting
ppp = luchtdruk
vv = zicht
sd = Zonneschijnduur
rr = neerslag

Weerstations in de omgeving